[[{"header":{"parameterUnit":"m.s-1","parameterCategory":1,"la1":30.2991,"la2":30.254,"lo1":-89.0895,"lo2":-89.0444,"dy":0.0017,"dx":0.0017,"nx":28,"ny":28,"refTime":"2023-11-14T09:00:00:Z","depth":0,"parameterNumber":2,"parameterNumberName":"U-component_of_WINDS"},"data":[0,0,0,0,0,0,0,0,0,0,0,0,0,0,0,0,0,0,0,0,0,0,0,0,0,0,0,0,0,0,0,0,0,0,0,0,0,0,0,0,0,0,0,0,0,0,0,0,0,0,0,0,0,0,0,0,0,0,-4.9629,-4.9631,0,-4.9773,-4.9775,-4.9776,-4.9675,-4.967,-4.9666,-4.9661,-4.9811,-4.9819,-4.9827,0,0,0,0,0,0,0,0,0,0,0,0,0,-4.9267,-4.9275,-4.9629,-4.9631,-4.9633,-4.9773,-4.9775,-4.9777,-4.9676,-4.967,-4.9664,-4.9659,-4.9809,-4.9818,-4.9828,0,0,0,0,0,0,0,0,0,0,0,0,0,-4.9419,-4.9277,-4.9629,-4.9599,-4.9598,-4.9773,-4.9775,-4.9777,-4.9677,-4.967,-4.9663,-4.9657,-4.9805,-4.9817,-4.9829,-5.0042,0,0,-4.9867,-4.9873,0,0,0,0,0,0,0,0,-4.9411,-4.9433,-4.9601,-4.9601,-4.96,-4.9699,-4.9702,-4.9866,-4.9678,-4.9647,-4.9661,-4.9653,-4.978,-4.9794,-4.9836,-5.0049,-5.0056,-4.9868,-4.9876,-4.9881,-4.9885,0,0,0,0,0,0,0,-4.9401,-4.9426,-4.9686,-4.9604,-4.9603,-4.9579,-4.9593,-4.9733,-4.975,-4.9649,-4.9642,-4.966,-4.9778,-4.9824,-4.9838,-5.0058,-4.9868,-4.9879,-4.9887,-4.9891,-5.0454,-5.0462,0,0,0,0,0,0,-4.9392,-4.9418,-4.9681,-4.969,-4.9487,-4.9591,-4.9607,-4.9674,-4.9748,-4.9753,-4.9666,-4.9655,-4.9806,-4.9824,-4.9843,-5.0099,-4.9881,-4.9893,-4.99,-5.0447,-5.0456,-5.0464,0,0,0,0,0,0,-4.9385,-4.9417,-4.9676,-4.9552,-4.9583,-4.9604,-4.9681,-4.9681,-4.9727,-4.9761,-4.9763,-4.971,-4.9802,-4.9826,-4.9994,-5.0102,-4.9898,-4.9909,-5.0438,-5.045,-5.046,-5.061,0,0,0,0,0,0,-4.9375,-4.9415,-4.9496,-4.9555,-4.959,-4.9824,-4.9688,-4.9688,-4.9748,-4.9735,-4.9803,-4.9807,-4.9798,-4.9976,-5.0006,-5.0116,-4.9919,-5.0428,-5.0443,-5.0457,-5.0596,-5.0625,-5.065,0,0,0,0,0,-4.9363,-4.9532,-4.95,-4.9533,-4.9692,-4.983,-4.985,-4.9836,-4.9757,-4.9839,-4.9861,-4.9805,-5.0085,-4.9994,-5.0027,-5.0142,-5.0422,-5.0439,-5.0455,-5.0583,-5.0619,-5.065,0,0,0,0,0,0,-4.9486,-4.954,-4.9505,-4.9698,-4.976,-4.9812,-4.9915,-4.9874,-4.996,-4.9944,-4.9923,-4.9939,-5.0115,-5.0145,-5.0042,-5.0352,-5.0241,-5.0265,-5.0327,-5.0361,-5.0388,-5.0378,-4.9929,0,0,0,0,0,-4.9536,-4.9643,-4.9684,-4.9851,-4.9884,-4.9895,-4.9954,-4.9937,-5.0001,-5.0027,-5.0061,-5.0125,-5.0227,-5.0296,-5.0392,-5.0598,-5.0613,-5.0694,-5.0721,-5.0744,-5.0766,-5.0879,-5.0916,-5.052,-5.052,-5.052,0,0,-4.964,-4.9682,-4.9751,-4.9877,-4.9923,-5.0036,-4.9917,-5.0041,-5.0124,-5.0046,-5.0206,-5.0234,-5.0304,-5.0493,-5.0578,-5.0523,-5.0878,-5.0765,-5.0783,-5.0793,-5.09,-5.0938,-5.0971,-5.0532,-5.0529,-5.0528,0,0,-4.9887,-4.9929,-5.0074,-5.0122,-5.0193,-5.0199,-5.0234,-5.0292,-5.0307,-5.0468,-5.0411,-5.051,-5.0687,-5.074,-5.079,-5.1057,-5.101,-5.1089,-5.1233,-5.1344,-5.1375,-5.1403,-5.15,-5.1535,-5.111,-5.1111,-5.1111,0,-5.0008,-5.0174,-5.0153,-5.0282,-5.0339,-5.0272,-5.0419,-5.0467,-5.0566,-5.0608,-5.0544,-5.0765,-5.0807,-5.1008,-5.1074,-5.1116,-5.1156,-5.1082,-5.1372,-5.1399,-5.1425,-5.1517,-5.1554,-5.112,-5.1119,-5.1118,-5.1117,0,-5.032,-5.0437,-5.0545,-5.0642,-5.0711,-5.0848,-5.0849,-5.0921,-5.0898,-5.0911,-5.1076,-5.1125,-5.123,-5.1276,-5.1254,-5.1474,-5.1438,-5.1374,-5.1262,-5.1472,-5.1559,-5.1594,-5.1133,-5.113,-5.1127,-5.1125,0,0,-5.0651,-5.0734,-5.0774,-5.0818,-5.0891,-5.0981,-5.1115,-5.1217,-5.1281,-5.1351,-5.1464,-5.1615,-5.1556,-5.1613,-5.1597,-5.1694,-5.1905,-5.1618,-5.1619,-5.1671,-5.2152,-5.2201,-5.2242,-5.1873,-5.1879,-5.1884,-5.2146,0,-5.0904,-5.1137,-5.1122,-5.1342,-5.145,-5.1387,-5.1504,-5.1562,-5.1578,-5.1672,-5.1689,-5.1797,-5.171,-5.1744,-5.1837,-5.1859,-5.2001,-5.184,-5.1979,-5.1985,-5.1966,-5.2287,-5.234,-5.2585,-5.218,-5.2186,-5.219,0,-5.123,-5.1311,-5.1543,-5.16,-5.1645,-5.175,-5.1843,-5.1933,-5.1998,-5.2002,-5.2066,-5.2034,-5.217,-5.2054,-5.2242,-5.2133,-5.2189,-5.2208,-5.2217,-5.2232,-5.2102,-5.2313,-5.2662,-5.27,-5.2242,-5.2238,-5.2234,0,-5.1451,-5.1618,-5.1778,-5.1817,-5.1887,-5.1963,-5.1996,-5.2054,-5.2116,-5.2197,-5.2238,-5.2334,-5.2388,-5.2463,-5.2459,-5.2374,-5.2651,-5.2533,-5.266,-5.266,-5.2723,-5.272,-5.3089,-5.2756,-5.2755,-5.2754,-5.2753,0,-5.1736,-5.188,-5.1878,-5.1977,-5.2137,-5.2118,-5.2277,-5.2302,-5.2354,-5.2457,-5.2408,-5.2506,-5.2492,-5.2591,-5.2588,-5.2746,-5.2769,-5.2778,-5.2776,-5.2784,-5.2783,-5.2822,-5.2806,-5.2764,-5.2762,-5.276,-5.2758,0,-5.201,-5.2015,-5.2185,-5.2238,-5.2254,-5.237,-5.2415,-5.2509,-5.252,-5.2651,-5.2681,-5.2698,-5.2812,-5.2814,-5.2944,-5.2942,-5.3135,-5.3113,-5.3114,-5.311,-5.3237,-5.3226,-5.3647,-5.3702,-5.333,-5.3334,-5.3337,0,-5.2193,-5.2303,-5.2367,-5.2432,-5.247,-5.2576,-5.2639,-5.2624,-5.2693,-5.2775,-5.286,-5.2968,-5.3055,-5.3239,-5.3264,-5.3364,-5.3345,-5.3485,-5.336,-5.3365,-5.335,-5.3344,-5.3356,-5.3511,-5.3515,-5.3518,-5.3521,0,-5.2518,-5.2515,-5.2608,-5.2703,-5.278,-5.2854,-5.2922,-5.2978,-5.2971,-5.3051,-5.3166,-5.3233,-5.3366,-5.3475,-5.3572,-5.3606,-5.3564,-5.356,-5.3595,-5.3605,-5.3602,-5.3608,-5.3183,-5.3551,-5.3548,-5.3546,-5.3544,-5.3543,-5.2754,-5.2849,-5.2909,-5.3015,-5.3064,-5.3129,-5.322,-5.3242,-5.3338,-5.3444,-5.343,-5.3559,-5.3621,-5.3746,-5.3789,-5.389,-5.3842,-5.3892,-5.3905,-5.3918,-5.3933,-5.3584,-5.3907,-5.3907,-5.3906,-5.3905,-5.3904,0,-5.3078,-5.3113,-5.321,-5.3307,-5.3391,-5.3341,-5.3415,-5.3488,-5.3602,-5.3663,-5.3749,-5.3882,-5.3988,-5.4021,-5.4124,-5.4199,-5.4182,-5.4226,-5.4222,-5.4231,-5.397,-5.393,-5.4238,-5.4238,-5.4238,-5.4238,-5.4238,-5.4238,-5.3256,-5.3415,-5.3418,-5.3601,-5.3635,-5.3761,-5.3807,-5.3867,-5.3916,-5.4067,-5.4154,-5.4174,-5.4225,-5.4331,-5.4426,-5.4433,-5.4474,-5.4527,-5.4527,-5.4283,-5.4249,-5.4217,-5.418,-5.4536,-5.4536,-5.478,-5.4782,-5.4784]},{"header":{"parameterUnit":"m.s-1","parameterCategory":1,"la1":30.2991,"la2":30.254,"lo1":-89.0895,"lo2":-89.0444,"dy":0.0017,"dx":0.0017,"nx":28,"ny":28,"refTime":"2023-11-14T09:00:00:Z","depth":0,"parameterNumber":3,"parameterNumberName":"V-component_of_WINDS"},"data":[0,0,0,0,0,0,0,0,0,0,0,0,0,0,0,0,0,0,0,0,0,0,0,0,0,0,0,0,0,0,0,0,0,0,0,0,0,0,0,0,0,0,0,0,0,0,0,0,0,0,0,0,0,0,0,0,0,0,-4.1251,-4.1251,0,-4.1265,-4.1266,-4.1266,-4.1216,-4.1215,-4.1213,-4.1212,-4.1225,-4.1227,-4.1228,0,0,0,0,0,0,0,0,0,0,0,0,0,-4.1177,-4.1179,-4.1251,-4.1251,-4.1251,-4.1265,-4.1266,-4.1266,-4.1216,-4.1215,-4.1213,-4.1211,-4.1224,-4.1227,-4.1229,0,0,0,0,0,0,0,0,0,0,0,0,0,-4.1202,-4.118,-4.1251,-4.1228,-4.1226,-4.1265,-4.1266,-4.1266,-4.1217,-4.1214,-4.1212,-4.121,-4.1224,-4.1226,-4.1229,-4.129,0,0,-4.1237,-4.1238,0,0,0,0,0,0,0,0,-4.1201,-4.1205,-4.1231,-4.123,-4.1228,-4.1237,-4.1245,-4.1274,-4.1217,-4.122,-4.1212,-4.1209,-4.1231,-4.1233,-4.124,-4.129,-4.1291,-4.1237,-4.1239,-4.124,-4.1241,0,0,0,0,0,0,0,-4.1199,-4.1204,-4.1256,-4.1232,-4.123,-4.1216,-4.1218,-4.125,-4.1238,-4.122,-4.1216,-4.1219,-4.1229,-4.1238,-4.124,-4.1291,-4.1237,-4.1239,-4.1241,-4.1242,-4.139,-4.1392,0,0,0,0,0,0,-4.1201,-4.1203,-4.1256,-4.1257,-4.1209,-4.122,-4.1221,-4.1236,-4.1237,-4.1235,-4.1221,-4.1216,-4.1234,-4.1237,-4.124,-4.131,-4.124,-4.1242,-4.1244,-4.1388,-4.1391,-4.1393,0,0,0,0,0,0,-4.1199,-4.1206,-4.1255,-4.1229,-4.1234,-4.1223,-4.1241,-4.1238,-4.1246,-4.1238,-4.1235,-4.1232,-4.1233,-4.1237,-4.1278,-4.131,-4.1243,-4.1246,-4.1385,-4.1389,-4.1392,-4.1452,0,0,0,0,0,0,-4.1198,-4.1206,-4.123,-4.123,-4.1236,-4.1293,-4.1243,-4.1239,-4.1251,-4.1245,-4.1248,-4.1246,-4.1231,-4.1274,-4.128,-4.1312,-4.1248,-4.1382,-4.1387,-4.1391,-4.1447,-4.1457,-4.1465,0,0,0,0,0,-4.1195,-4.1246,-4.1231,-4.1238,-4.1266,-4.1295,-4.1299,-4.1281,-4.1254,-4.1277,-4.1271,-4.1246,-4.1306,-4.1279,-4.1285,-4.1319,-4.138,-4.1385,-4.139,-4.1442,-4.1455,-4.1465,0,0,0,0,0,0,-4.125,-4.1246,-4.1229,-4.1282,-4.1289,-4.1287,-4.1316,-4.1295,-4.131,-4.1305,-4.1282,-4.1283,-4.1327,-4.1327,-4.1297,-4.1377,-4.1338,-4.1345,-4.1375,-4.1387,-4.1396,-4.1395,-4.125,0,0,0,0,0,-4.1268,-4.1293,-4.1288,-4.1335,-4.1339,-4.1327,-4.134,-4.1325,-4.1332,-4.1335,-4.1332,-4.1339,-4.1359,-4.1373,-4.1391,-4.1447,-4.1445,-4.1473,-4.1482,-4.149,-4.1496,-4.1523,-4.1535,-4.1411,-4.1411,-4.141,0,0,-4.1306,-4.1307,-4.1324,-4.1346,-4.135,-4.1375,-4.133,-4.136,-4.1378,-4.1339,-4.1377,-4.1376,-4.1382,-4.143,-4.1451,-4.1431,-4.153,-4.1497,-4.1503,-4.1505,-4.153,-4.1542,-4.1552,-4.1414,-4.1414,-4.1413,0,0,-4.1387,-4.1391,-4.143,-4.1435,-4.1441,-4.1433,-4.1442,-4.1443,-4.144,-4.1478,-4.1449,-4.147,-4.1506,-4.1511,-4.1518,-4.16,-4.1577,-4.1607,-4.1655,-4.1682,-4.1692,-4.1701,-4.1729,-4.1739,-4.1613,-4.1613,-4.1613,0,-4.1433,-4.1471,-4.1452,-4.1483,-4.1493,-4.1459,-4.1497,-4.1503,-4.1515,-4.1522,-4.15,-4.1543,-4.1545,-4.1593,-4.1612,-4.162,-4.1629,-4.1606,-4.1692,-4.1701,-4.1708,-4.1735,-4.1745,-4.1617,-4.1616,-4.1616,-4.1616,0,-4.1526,-4.1553,-4.1583,-4.1596,-4.1609,-4.1643,-4.1629,-4.1644,-4.1629,-4.1622,-4.166,-4.1661,-4.1678,-4.1689,-4.1674,-4.1734,-4.1721,-4.1697,-4.1657,-4.1724,-4.1748,-4.1758,-4.1622,-4.162,-4.1619,-4.1619,0,0,-4.1643,-4.1644,-4.1655,-4.1659,-4.1664,-4.1684,-4.1716,-4.1733,-4.1746,-4.1755,-4.1781,-4.1811,-4.1788,-4.1796,-4.1782,-4.1806,-4.1869,-4.1777,-4.1777,-4.1793,-4.1933,-4.1951,-4.1963,-4.1853,-4.1855,-4.1857,-4.1932,0,-4.1721,-4.1777,-4.176,-4.1816,-4.1839,-4.1807,-4.1834,-4.184,-4.1834,-4.1852,-4.1846,-4.1867,-4.1836,-4.184,-4.1862,-4.1856,-4.1896,-4.1851,-4.1876,-4.1877,-4.1874,-4.1976,-4.1995,-4.2066,-4.1941,-4.1943,-4.1944,0,-4.1821,-4.1834,-4.1892,-4.1891,-4.19,-4.1926,-4.1939,-4.1957,-4.1962,-4.1956,-4.1965,-4.1945,-4.1975,-4.1936,-4.1977,-4.1947,-4.1956,-4.1954,-4.1957,-4.1957,-4.1914,-4.1978,-4.2088,-4.2098,-4.1959,-4.1958,-4.1957,0,-4.1898,-4.193,-4.1968,-4.1974,-4.1974,-4.1992,-4.1993,-4.1996,-4.2006,-4.2018,-4.2024,-4.2039,-4.2047,-4.2059,-4.2043,-4.2017,-4.2086,-4.2046,-4.2081,-4.2081,-4.2096,-4.2095,-4.2208,-4.2104,-4.2104,-4.2104,-4.2104,0,-4.1987,-4.2024,-4.2003,-4.2026,-4.2065,-4.2045,-4.2084,-4.2081,-4.2084,-4.2105,-4.2079,-4.2099,-4.2078,-4.2096,-4.2084,-4.2119,-4.2123,-4.2118,-4.2115,-4.212,-4.2121,-4.2125,-4.2119,-4.2107,-4.2106,-4.2105,-4.2105,0,-4.208,-4.2068,-4.2107,-4.2104,-4.2104,-4.2133,-4.2129,-4.215,-4.2142,-4.217,-4.2175,-4.2163,-4.2183,-4.2169,-4.2189,-4.2181,-4.2226,-4.2216,-4.2224,-4.2221,-4.2256,-4.2253,-4.2375,-4.239,-4.2278,-4.2279,-4.228,0,-4.2137,-4.2164,-4.2163,-4.2176,-4.2178,-4.2199,-4.221,-4.2191,-4.2203,-4.2209,-4.2229,-4.2247,-4.226,-4.2294,-4.2286,-4.2301,-4.229,-4.2332,-4.2292,-4.2297,-4.2289,-4.2287,-4.2289,-4.234,-4.2341,-4.2342,-4.2343,0,-4.2239,-4.2231,-4.2248,-4.2262,-4.2275,-4.2285,-4.2293,-4.2305,-4.2286,-4.23,-4.232,-4.2331,-4.2351,-4.2368,-4.2381,-4.2381,-4.2358,-4.2356,-4.2365,-4.237,-4.2373,-4.237,-4.2245,-4.2353,-4.2352,-4.2351,-4.2351,-4.235,-4.2315,-4.2336,-4.2339,-4.2358,-4.2362,-4.2369,-4.2388,-4.2383,-4.2399,-4.2414,-4.2402,-4.2426,-4.2428,-4.2442,-4.2445,-4.2463,-4.2445,-4.2458,-4.2461,-4.2464,-4.2469,-4.2371,-4.2465,-4.2465,-4.2465,-4.2464,-4.2464,0,-4.2414,-4.2414,-4.2431,-4.2443,-4.2457,-4.2436,-4.2443,-4.2456,-4.2477,-4.2482,-4.2495,-4.2518,-4.2534,-4.2528,-4.2543,-4.2558,-4.2548,-4.2562,-4.256,-4.256,-4.2484,-4.2475,-4.257,-4.257,-4.257,-4.257,-4.257,-4.257,-4.2467,-4.2502,-4.2495,-4.2531,-4.253,-4.2554,-4.2559,-4.2566,-4.2569,-4.2595,-4.2609,-4.2605,-4.2605,-4.2619,-4.2633,-4.263,-4.2636,-4.2654,-4.2648,-4.2577,-4.2566,-4.2556,-4.2547,-4.2656,-4.2656,-4.2723,-4.2723,-4.2724]}]]